This demonstration page uses our WeatherBlox Daily Observations layout. Learn more.

Left ArrowRight Arrow

38.83388, -104.82136

Hourly Observations for March 11, 2021

Temp ( °F °C ) Dew Point ( °F °C ) Humidity (%) Winds ( mph kmh ) Pressure ( in mb ) Visibility ( mi km ) Precip ( " mm )
12:58 am 00:58 Mostly Clear 29 -1.4 13 -10.6 50 50 SSW 12 19 29.68 1005 10 16 0.00 0.00
1:58 am 01:58 Clear 30 -1.2 18 -7.9 61 61 S 12 19 29.68 1005 10 16 0.00 0.00
2:58 am 02:58 Clear 30 -1.1 20 -6.7 66 66 S 8 13 29.67 1005 10 16 0.00 0.00
3:58 am 03:58 Clear 26 -3.2 22 -5.8 82 82 SSE 10 17 29.72 1006 10 16 0.00 0.00
4:58 am 04:58 Clear 26 -3.6 22 -5.3 88 88 SSE 13 20 29.74 1007 10 16 0.00 0.00
5:33 am 05:33 Mostly Cloudy 27 -3 23 -5 86 86 SSE 16 26 29.77 1008 10 16 0.00 0.00
5:48 am 05:48 Mostly Cloudy 27 -3 23 -5 86 86 SSE 15 24 29.77 1008 10 16 0.00 0.00
5:58 am 05:58 Mostly Cloudy 26 -3.6 22 -5.3 88 88 S 15 24 29.77 1008 10 16 0.00 0.00
6:23 am 06:23 Cloudy 25 -4 23 -5 93 93 SSE 15 24 29.80 1009 10 16 0.00 0.00
6:58 am 06:58 Cloudy 25 -3.9 22 -5.3 90 90 SSE 13 20 29.82 1010 10 16 0.00 0.00
7:58 am 07:58 Cloudy 25 -4 22 -5.6 89 89 S 15 24 29.82 1010 10 16 0.00 0.00
8:13 am 08:13 Cloudy 25 -4 21 -6 86 86 SSE 13 20 29.82 1010 10 16 0.00 0.00
8:38 am 08:38 Cloudy 25 -4 21 -6 86 86 S 16 26 29.82 1010 10 16 0.00 0.00
8:58 am 08:58 Cloudy 25 -3.7 22 -5.7 86 86 SSE 20 31 29.82 1010 10 16 0.00 0.00
9:08 am 09:08 Cloudy 27 -3 23 -5 86 86 SSE 21 33 30.13 1020 10 16 0.00 0.00
9:38 am 09:38 Partly Cloudy 30 -1 23 -5 75 75 SSE 16 26 29.80 1009 10 16 0.00 0.00
9:58 am 09:58 Mostly Sunny 31 -0.8 22 -5.5 71 71 SE 20 31 29.78 1009 10 16 0.00 0.00
10:28 am 10:28 Mostly Cloudy 34 1 23 -5 65 65 SSE 14 22 29.78 1009 10 16 0.00 0.00
10:48 am 10:48 Partly Cloudy 34 1 21 -6 60 60 SE 14 22 29.78 1009 10 16 0.00 0.00
10:58 am 10:58 Mostly Sunny 34 1.1 21 -5.9 60 60 SE 16 26 29.75 1008 10 16 0.00 0.00
11:58 am 11:58 Sunny 35 1.7 22 -5.8 58 58 SE 14 22 29.79 1009 10 16 0.00 0.00
12:58 pm 12:58 Sunny 38 3.2 21 -6.2 51 51 SE 15 24 29.75 1008 10 16 0.00 0.00
1:58 pm 13:58 Mostly Sunny 37 2.5 19 -7 50 50 SE 18 30 29.73 1007 10 16 0.00 0.00
2:58 pm 14:58 Mostly Cloudy 36 2 19 -7 52 52 SE 13 20 29.75 1007 10 16 0.00 0.00
3:58 pm 15:58 Mostly Cloudy 36 2.2 19 -7.1 51 51 SSE 12 19 29.78 1008 10 16 0.00 0.00
4:58 pm 16:58 Mostly Cloudy 36 2 20 -6.6 53 53 S 7 11 29.79 1009 10 16 0.00 0.00
5:58 pm 17:58 Cloudy 36 2.4 20 -6.4 53 53 SW 8 13 29.81 1009 10 16 0.00 0.00
6:58 pm 18:58 Mostly Cloudy 37 2.7 19 -7.2 48 48 S 7 11 29.81 1010 10 16 0.00 0.00
7:58 pm 19:58 Cloudy 35 1.5 23 -5.2 61 61 SW 10 17 29.87 1012 9 14 0.00 0.00
8:58 pm 20:58 Mostly Cloudy 35 1.5 19 -7.2 53 53 S 10 17 29.88 1012 10 16 0.00 0.00
9:58 pm 21:58 Cloudy 34 1.1 19 -7 55 55 S 3 6 29.88 1012 10 16 0.00 0.00
10:43 pm 22:43 Cloudy 34 1 19 -7 56 56 SE 5 7 29.87 1011 10 16 0.00 0.00
10:58 pm 22:58 Mostly Cloudy 33 0.3 20 -6.4 61 61 Calm 29.87 1011 10 16 0.00 0.00
11:58 pm 23:58 Cloudy 31 -0.4 22 -5.5 69 69 ESE 5 7 29.87 1011 10 16 0.00 0.00

Powered by AerisWeather